User: anonymous   Login
Location: Poughquag
(41.6090°N, 73.6820°W)
Time: 17:26:28
(UTC-05:00)
Language:

First-Move - Orbit

View from above orbital plane
View from above orbital plane
View from above satellite
View from above satellite

Ground track
Ground track

The orbit data is extracted from the following two-line orbital elements,

1 39439U 13066Z   23331.80637335  .00013456  00000-0  12501-2 0  9991
2 39439  97.7010 293.2516 0054971  92.8487 267.9026 14.93330614541709
Epoch (UTC): 27 November 2023 19:21:10
Eccentricity: 0.0054971
inclination: 97.7010°
perigee height: 549 km
apogee height: 626 km
right ascension of ascending node: 293.2516°
argument of perigee: 92.8487°
revolutions per day: 14.93330614
mean anomaly at epoch: 267.9026°
orbit number at epoch: 54170

The dashed part of the orbit path shows where the satellite is in the earth's shadow,  

DLR